Simultaneous Nadir Overpasses (SNOs) Predictions

Prediction of SNOs between LANDSAT-8 and METOP-B Satellite Orbit:

Table of predicted SNOs for the next 14.0 days since TLE Epoch: 11/23/2024
Index Date (LANDSAT-8) Time (LANDSAT-8) Lat,Lon (LANDSAT-8) SZA (LANDSAT-8 ) Date (METOP-B) Time (METOP-B) Lat,Lon (METOP-B) SZA (METOP-B ) Distance(km) Time Diff (sec)
1 11/25/2024 20:05:22 -81.41, 103.52 74.95 11/25/2024 20:04:17 -81.41, 103.38 74.99 2.38 65
2 11/25/2024 20:54:48 81.41, -88.76 105.08 11/25/2024 20:54:56 81.42, -88.74 105.09 0.86 8
3 11/28/2024 16:29:04 81.41, -22.31 105.55 11/28/2024 16:29:01 81.42, -22.20 105.57 2.07 3
4 11/28/2024 17:18:30 -81.43, 145.69 74.39 11/28/2024 17:19:40 -81.42, 145.85 74.35 2.60 70
5 12/01/2024 12:03:19 81.41, 44.10 105.97 12/01/2024 12:03:06 81.42, 44.18 105.98 1.56 13
6 12/01/2024 12:52:45 -81.43,-147.88 73.98 12/01/2024 12:53:45 -81.42,-147.76 73.94 1.97 60
7 12/04/2024 07:37:31 81.42, 110.87 106.38 12/04/2024 07:37:09 81.42, 110.79 106.36 1.49 22
8 12/04/2024 08:26:58 -81.42, -81.48 73.62 12/04/2024 08:27:49 -81.42, -81.53 73.61 0.92 51
9 12/07/2024 03:11:44 81.42, 177.21 106.67 12/07/2024 03:11:13 81.42, 177.23 106.65 0.35 31



Historial Predications of SNOs between LANDSAT-8 and METOP-B
